Location: *
(35.8942°N, 23.3025°E)
Time: 17:48:19
(UTC+00:00)

Gurwin Techsat 1B - Pass Details

Date: 05 April 2023
Orbit: 811 x 813 km, 98.9° (Epoch: 03 June)

Event Time Altitude Azimuth Distance (km) Brightness Sun altitude
Rises 00:31:08 0° 25° (NNE) 3,343 12.7 -39.4°
Reaches altitude 10° 00:33:46 10° 37° (NE) 2,407 11.8 -39.1°
Enters shadow 00:36:31 24° 62° (ENE) 1,636 10.6 -38.7°
